This is the latest recevied weather packets stored in our database for station/object KD2RHT-13. If no packets are shown the sender has not sent any weather packets the latest 10 day(s).
| Time | Temp. | Humidity | Pressure | Rain* | Wind** | Luminosity | Snow |
|---|---|---|---|---|---|---|---|
| 1777748949 | 8.33° C | 66% | 1015.6 hPa | 0 mm | - | 239 W/m² | - |
| 1777748646 | 7.78° C | 67% | 1015.9 hPa | 0 mm | - | 180 W/m² | - |
| 1777748343 | 7.78° C | 66% | 1015.9 hPa | 0 mm | - | 152 W/m² | - |
| 1777748038 | 7.78° C | 66% | 1015.9 hPa | 0 mm | - | 174 W/m² | - |
| 1777747735 | 7.78° C | 66% | 1015.9 hPa | 0 mm | - | 158 W/m² | - |
| 1777747430 | 8.33° C | 64% | 1015.9 hPa | 0 mm | - | 163 W/m² | - |
| 1777747128 | 7.78° C | 65% | 1015.9 hPa | 0 mm | - | 338 W/m² | - |
| 1777746824 | 7.78° C | 64% | 1015.9 hPa | 0 mm | - | 263 W/m² | - |
| 1777746518 | 7.78° C | 66% | 1015.9 hPa | 0 mm | - | 134 W/m² | - |
| 1777746214 | 7.78° C | 67% | 1015.9 hPa | 0 mm | - | 163 W/m² | - |
| 1777745911 | 7.78° C | 67% | 1015.6 hPa | 0 mm | - | 140 W/m² | - |
| 1777745610 | 7.78° C | 67% | 1015.6 hPa | 0 mm | - | 170 W/m² | - |
| 1777745307 | 8.33° C | 66% | 1015.6 hPa | 0 mm | - | 170 W/m² | - |
| 1777745004 | 7.78° C | 65% | 1015.6 hPa | 0 mm | - | 220 W/m² | - |
| 1777744700 | 7.78° C | 66% | 1015.6 hPa | 0 mm | - | 295 W/m² | - |
| 1777744394 | 7.78° C | 68% | 1015.6 hPa | 0 mm | - | 340 W/m² | - |
| 1777744091 | 8.33° C | 67% | 1015.6 hPa | 0 mm | - | 208 W/m² | - |
| 1777743788 | 8.33° C | 67% | 1015.6 hPa | 0 mm | - | 274 W/m² | - |
| 1777743485 | 7.78° C | 68% | 1015.2 hPa | 0 mm | - | 285 W/m² | - |
| 1777743182 | 7.78° C | 67% | 1015.6 hPa | 0 mm | - | 134 W/m² | - |
| 1777742880 | 7.78° C | 68% | 1015.2 hPa | 0 mm | - | 85 W/m² | - |
| 1777742576 | 7.78° C | 68% | 1015.6 hPa | 0 mm | - | 127 W/m² | - |
| 1777742272 | 8.33° C | 69% | 1015.2 hPa | 0 mm | - | 179 W/m² | - |
| 1777741969 | 8.33° C | 66% | 1015.6 hPa | 0 mm | - | 157 W/m² | - |
| 1777741666 | 8.33° C | 66% | 1015.6 hPa | 0 mm | - | 232 W/m² | - |
* Rain latest hour (hover to see other rain measurements)
** Current wind speed in m/s (hover to see current wind gust speed)